Terminal Aerodrome Forecast
Issued by NWS Atlanta, GA

Home | Current Version | Previous Version | Text Only | Print | Product List | Glossary On
Versions: 1 2 3 4 5 6 7 8 9 10 11 12 13 14 15 16 17 18 19 20 21 22 23 24 25 26 27 28 29 30 31 32 33 34 35 36 37
000
FTUS42 KFFC 252329
TAFATL
TAF
KATL 252329Z 2600/2706 32005KT P6SM SKC
     FM260100 00000KT P6SM SKC
     FM261500 07004KT P6SM FEW200
     FM262100 13005KT P6SM SCT150=

USA.gov is the U.S. government's official web portal to all federal, state and local government web resources and services.